Terminal Aerodrome Forecast
Issued by NWS El Paso, TX

Home | Current Version | Previous Version | Text Only | Print | Product List | Glossary On
Versions: 1 2 3 4 5 6 7 8 9 10 11 12
671
FTUS44 KEPZ 122320
TAFELP
TAF
KELP 122320Z 1300/1324 VRB05KT P6SM SKC
     FM130600 06006KT P6SM FEW250
     FM132300 24006KT P6SM FEW250=

USA.gov is the U.S. government's official web portal to all federal, state and local government web resources and services.